FW3072 Weather Reports


time (UTC)temp
F
wind
direction
speed
knots
gust
knots
rain 1hr
in
rain 24hr
in
rain mn
in
humidity
%
barometer
mb
20260504060202 50 173 2.6 7.0 0.00 0.00 0.00 73 1008.6
20260504050202 51 240 4.3 16.5 0.00 0.00 0.00 69 1009.0
20260504045202 51 234 2.6 12.2 0.00 0.00 0.00 68 1009.1
20260504044225 51 270 3.5 8.7 0.00 0.00 0.00 66 1009.1
20260504043202 51 265 4.3 10.4 0.00 0.00 0.00 65 1009.2
20260504042201 51 263 4.3 14.8 0.00 0.00 0.00 64 1009.1
20260504041202 51 264 2.6 13.0 0.00 0.00 0.00 62 1009.1
20260504040202 52 261 2.6 7.8 0.00 0.00 0.00 61 1009.0
20260504035202 52 281 6.1 16.5 0.00 0.00 0.00 60 1009.0
20260504034202 53 257 2.6 7.0 0.00 0.00 0.00 60 1008.9
20260504033202 53 263 2.6 7.0 0.00 0.00 0.00 59 1009.0
20260504032202 54 235 4.3 11.3 0.00 0.00 0.00 57 1009.1
20260504031202 54 242 3.5 8.7 0.00 0.00 0.00 57 1009.1
20260504030201 54 268 4.3 10.4 0.00 0.00 0.00 56 1009.1
20260504025224 54 245 3.5 14.8 0.00 0.00 0.00 56 1009.1
20260504024202 54 274 5.2 12.2 0.00 0.00 0.00 56 1009.1
20260504023203 54 262 5.2 13.9 0.00 0.00 0.00 56 1009.2
20260504022223 53 260 5.2 13.0 0.00 0.00 0.00 57 1009.1
20260504021202 53 233 0.9 10.4 0.00 0.00 0.00 60 1009.2
20260504020202 53 231 1.7 12.2 0.00 0.00 0.00 60 1009.3
20260504015204 53 242 2.6 10.4 0.00 0.00 0.00 59 1009.3
20260504014225 53 215 2.6 7.8 0.00 0.00 0.00 59 1009.2
20260504013202 53 256 3.5 10.4 0.00 0.00 0.00 60 1009.2
20260504012203 53 266 4.3 15.6 0.00 0.00 0.00 59 1009.3
20260504011202 53 228 4.3 17.4 0.00 0.00 0.00 58 1009.3
20260504010202 53 219 3.5 13.9 0.00 0.00 0.00 58 1009.3
20260504005202 53 251 2.6 16.5 0.00 0.00 0.00 60 1009.2
20260504004202 53 278 4.3 13.9 0.00 0.00 0.00 60 1009.2
20260504003202 52 277 3.5 12.2 0.00 0.00 0.00 60 1009.2
20260504002202 52 257 3.5 10.4 0.00 0.00 0.00 62 1009.2
20260504000223 53 233 2.6 7.8 0.00 0.00 0.00 61 1009.3
20260503235202 53 261 1.7 7.8 0.00 0.00 0.00 61 1009.4
20260503234202 53 246 2.6 10.4 0.00 0.00 0.00 62 1009.4
20260503233202 53 255 2.6 8.7 0.00 0.00 0.00 62 1009.5
20260503232202 53 270 4.3 13.9 0.00 0.00 0.00 64 1009.5
20260503231202 53 286 3.5 9.6 0.00 0.00 0.00 66 1009.7
20260503230202 53 288 4.3 7.8 0.00 0.00 0.00 66 1009.8
20260503225224 53 284 4.3 13.0 0.00 0.00 0.00 65 1009.8
20260503224202 53 268 3.5 9.6 0.00 0.00 0.00 65 1009.8
20260503223204 53 288 5.2 10.4 0.00 0.00 0.00 63 1009.9
20260503222223 52 270 6.1 13.9 0.00 0.00 0.00 64 1009.8
20260503221202 52 264 5.2 12.2 0.00 0.00 0.00 66 1009.9
20260503220201 52 282 6.1 15.6 0.00 0.00 0.00 65 1009.8
20260503215202 52 260 7.0 13.9 0.00 0.00 0.00 65 1009.7
20260503214202 52 264 4.3 18.2 0.00 0.00 0.00 65 1009.6
20260503213202 52 270 3.5 10.4 0.00 0.00 0.00 65 1009.5
20260503211203 52 271 5.2 15.6 0.00 0.00 0.00 65 1009.4
20260503210202 51 258 3.5 13.0 0.00 0.00 0.00 65 1009.5
20260503205201 51 244 3.5 13.0 0.00 0.00 0.00 64 1009.7
20260503203203 52 219 3.5 11.3 0.00 0.00 0.00 63 1009.8
20260503202202 52 270 4.3 18.2 0.00 0.00 0.00 63 1009.9
20260503201203 53 237 3.5 13.0 0.00 0.00 0.00 62 1010.0
20260503200204 53 263 5.2 11.3 0.00 0.00 0.00 61 1010.2
20260503195205 54 245 4.3 16.5 0.00 0.00 0.00 61 1010.4
20260503194202 54 218 3.5 11.3 0.00 0.00 0.00 60 1010.4
20260503193223 54 256 5.2 13.9 0.00 0.00 0.00 60 1010.6
20260503192203 53 269 5.2 13.0 0.00 0.00 0.00 60 1010.9
20260503191202 53 241 5.2 14.8 0.00 0.00 0.00 59 1011.0
20260503190203 53 281 7.8 16.5 0.00 0.00 0.00 58 1011.1
20260503185203 54 253 5.2 20.0 0.00 0.00 0.00 56 1011.2
20260503184202 54 277 6.1 16.5 0.00 0.00 0.00 56 1011.3
20260503183202 54 254 7.0 15.6 0.00 0.00 0.00 55 1011.5
20260503182205 55 238 4.3 12.2 0.00 0.00 0.00 52 1011.6
20260503181202 54 252 4.3 10.4 0.00 0.00 0.00 55 1011.6
20260503180202 53 227 4.3 13.9 0.00 0.00 0.00 54 1011.8
20260503175202 53 219 3.5 10.4 0.00 0.00 0.00 59 1011.9
20260503174224 51 242 3.5 10.4 0.00 0.00 0.00 60 1012.2
20260503173202 51 255 2.6 9.6 0.00 0.00 0.00 61 1012.3
20260503172203 52 228 3.5 8.7 0.00 0.00 0.00 64 1012.6
20260503171225 52 227 3.5 10.4 0.00 0.00 0.00 62 1012.6
20260503170202 51 222 3.5 13.9 0.00 0.00 0.00 60 1012.7
20260503160203 51 238 3.5 7.0 0.00 0.00 0.00 58 1013.4
20260503150202 49 242 4.3 10.4 0.00 0.00 0.00 64 1013.8
20260503140204 47 269 5.2 13.9 0.00 0.00 0.00 75 1014.0
20260503131202 45 265 3.5 10.4 0.00 0.00 0.00 80 1014.2
20260503130223 44 211 2.6 7.8 0.00 0.00 0.00 81 1014.2
20260503120202 38 235 0.9 2.6 0.00 0.00 0.00 89 1014.3
20260503110225 32 242 0.0 0.0 0.00 0.00 0.00 89 1014.4
20260503100204 30 242 0.0 0.0 0.00 0.00 0.00 88 1014.3
20260503090202 30 242 0.0 0.0 0.00 0.00 0.00 87 1014.6
20260503081201 31 242 0.0 0.0 0.00 0.00 0.00 86 1014.7
20260503080204 31 242 0.0 0.0 0.00 0.00 0.00 86 1014.7
20260503072203 31 242 0.0 0.0 0.00 0.00 0.00 85 1014.6
20260503071225 31 242 0.0 0.0 0.00 0.00 0.00 84 1014.6
20260503070226 31 242 0.0 0.0 0.00 0.00 0.00 84 1014.5